When you browse on this site, cookies collect data to enhance your experience and personalize the content and advertising you see.
Visit our Privacy Policy to learn more. By continuing to use the site, you agree to this use of cookies and data.
  • In Czech Republic
  • List of Countries
  • For 7 days
  • Water Temperature
  • Weather Map
  • Weather Widgets
  • user-avatar
    Login

    Hourly Weather Kumasi

    Today, 19 October, Saturday

    Time Temperature Precipitation Wind Pressure Humidity
    00:00 +26°C° 0 mm 1 mps 755 mmHg 89%
    01:00 +26°C° 0 mm 1 mps 755 mmHg 90%
    02:00 +26°C° 0 mm 1 mps 754 mmHg 91%
    03:00 +26°C° 0 mm 1 mps 754 mmHg 92%
    04:00 +26°C° 0.3 mm 1 mps 754 mmHg 92%
    05:00 +25°C° 0.3 mm 1 mps 755 mmHg 92%
    06:00 +25°C° 0.3 mm 1 mps 755 mmHg 92%
    07:00 +27°C° 0 mm 1 mps 755 mmHg 87%
    08:00 +28°C° 0 mm 1 mps 755 mmHg 82%
    09:00 +29°C° 0 mm 1 mps 756 mmHg 77%
    10:00 +30°C° 0.6 mm 2 mps 755 mmHg 76%
    11:00 +30°C° 0.6 mm 2 mps 755 mmHg 74%
    12:00 +31°C° 0.6 mm 3 mps 755 mmHg 73%
    13:00 +30°C° 1.5 mm 3 mps 754 mmHg 75%
    14:00 +30°C° 1.5 mm 3 mps 753 mmHg 77%
    15:00 +30°C° 1.5 mm 4 mps 753 mmHg 79%
    16:00 +29°C° 0.9 mm 4 mps 753 mmHg 81%
    17:00 +28°C° 0.9 mm 4 mps 753 mmHg 83%
    18:00 +27°C° 0.9 mm 4 mps 754 mmHg 85%
    19:00 +27°C° 0 mm 3 mps 755 mmHg 86%
    20:00 +27°C° 0 mm 3 mps 755 mmHg 87%
    21:00 +27°C° 0 mm 3 mps 756 mmHg 88%
    22:00 +27°C° 0.1 mm 3 mps 756 mmHg 88%
    23:00 +27°C° 0.1 mm 3 mps 756 mmHg 89%

    Tomorrow, 20 October, Sunday

    Time Temperature Precipitation Wind Pressure Humidity
    00:00 +26°C° 0.1 mm 3 mps 756 mmHg 89%
    01:00 +26°C° 0 mm 2 mps 755 mmHg 90%
    02:00 +26°C° 0 mm 2 mps 755 mmHg 91%
    03:00 +26°C° 0 mm 2 mps 755 mmHg 92%
    04:00 +26°C° 0.1 mm 2 mps 755 mmHg 92%
    05:00 +26°C° 0.1 mm 1 mps 755 mmHg 92%
    06:00 +26°C° 0.1 mm 1 mps 755 mmHg 92%
    07:00 +27°C° 0 mm 2 mps 756 mmHg 87%
    08:00 +29°C° 0 mm 2 mps 756 mmHg 81%
    09:00 +30°C° 0 mm 3 mps 757 mmHg 75%
    10:00 +30°C° 1.1 mm 3 mps 756 mmHg 75%
    11:00 +30°C° 1.1 mm 4 mps 755 mmHg 75%
    12:00 +30°C° 1.1 mm 4 mps 755 mmHg 75%
    13:00 +30°C° 1.9 mm 4 mps 754 mmHg 76%
    14:00 +30°C° 1.9 mm 4 mps 754 mmHg 77%
    15:00 +30°C° 1.9 mm 4 mps 754 mmHg 79%
    16:00 +29°C° 1.9 mm 4 mps 754 mmHg 81%
    17:00 +28°C° 1.9 mm 3 mps 755 mmHg 84%
    18:00 +27°C° 1.9 mm 3 mps 755 mmHg 87%
    19:00 +27°C° 0.4 mm 3 mps 756 mmHg 87%
    20:00 +27°C° 0.4 mm 2 mps 756 mmHg 88%
    21:00 +27°C° 0.4 mm 2 mps 757 mmHg 88%
    22:00 +26°C° 0 mm 2 mps 757 mmHg 89%
    23:00 +26°C° 0 mm 2 mps 756 mmHg 89%

    Day after tomorrow, 21 October, Monday

    Time Temperature Precipitation Wind Pressure Humidity
    00:00 +26°C° 0 mm 2 mps 756 mmHg 90%
    01:00 +26°C° 0 mm 2 mps 756 mmHg 90%
    02:00 +26°C° 0 mm 2 mps 755 mmHg 91%
    03:00 +26°C° 0 mm 1 mps 755 mmHg 91%
    04:00 +26°C° 0 mm 1 mps 755 mmHg 92%
    05:00 +26°C° 0 mm 1 mps 756 mmHg 92%
    06:00 +26°C° 0 mm 1 mps 756 mmHg 93%
    07:00 +27°C° 0 mm 1 mps 757 mmHg 87%
    08:00 +28°C° 0 mm 1 mps 757 mmHg 82%
    09:00 +29°C° 0 mm 1 mps 757 mmHg 77%
    10:00 +30°C° 0.1 mm 1 mps 757 mmHg 73%
    11:00 +31°C° 0.1 mm 1 mps 756 mmHg 70%
    12:00 +32°C° 0.1 mm 1 mps 756 mmHg 66%
    13:00 +32°C° 0.1 mm 2 mps 755 mmHg 67%
    14:00 +32°C° 0.1 mm 2 mps 754 mmHg 68%
    15:00 +33°C° 0.1 mm 3 mps 754 mmHg 69%
    16:00 +30°C° 0.2 mm 2 mps 754 mmHg 74%
    17:00 +29°C° 0.2 mm 2 mps 754 mmHg 79%
    18:00 +28°C° 0.2 mm 2 mps 754 mmHg 84%
    19:00 +28°C° 0 mm 2 mps 755 mmHg 85%
    20:00 +27°C° 0 mm 2 mps 755 mmHg 86%
    21:00 +27°C° 0 mm 2 mps 756 mmHg 86%
    22:00 +27°C° 0 mm 2 mps 755 mmHg 87%
    23:00 +27°C° 0 mm 2 mps 755 mmHg 87%

    22 October, Tuesday

    Time Temperature Precipitation Wind Pressure Humidity
    00:00 +26°C° 0 mm 2 mps 755 mmHg 88%
    01:00 +26°C° 0.1 mm 2 mps 755 mmHg 89%
    02:00 +26°C° 0.1 mm 2 mps 755 mmHg 90%
    03:00 +26°C° 0.1 mm 2 mps 754 mmHg 91%
    04:00 +26°C° 1.2 mm 2 mps 755 mmHg 92%
    05:00 +26°C° 1.2 mm 2 mps 755 mmHg 93%
    06:00 +26°C° 1.2 mm 3 mps 755 mmHg 94%
    07:00 +26°C° 1.4 mm 3 mps 755 mmHg 93%
    08:00 +26°C° 1.4 mm 2 mps 755 mmHg 93%
    09:00 +26°C° 1.4 mm 2 mps 756 mmHg 93%
    10:00 +27°C° 0 mm 2 mps 755 mmHg 85%
    11:00 +29°C° 0 mm 2 mps 755 mmHg 78%
    12:00 +31°C° 0 mm 2 mps 754 mmHg 71%
    13:00 +31°C° 0 mm 2 mps 754 mmHg 71%
    14:00 +31°C° 0 mm 2 mps 753 mmHg 72%
    15:00 +31°C° 0 mm 2 mps 753 mmHg 72%
    16:00 +30°C° 0.1 mm 2 mps 753 mmHg 76%
    17:00 +29°C° 0.1 mm 2 mps 753 mmHg 80%
    18:00 +28°C° 0.1 mm 2 mps 753 mmHg 85%
    19:00 +28°C° 0 mm 1 mps 754 mmHg 86%
    20:00 +27°C° 0 mm 1 mps 754 mmHg 87%
    21:00 +25°C° 0 mm 0 mps 755 mmHg 88%
    22:00 +27°C° 0.4 mm 1 mps 754 mmHg 89%
    23:00 +27°C° 0.4 mm 1 mps 754 mmHg 89%

    23 October, Wednesday

    Time Temperature Precipitation Wind Pressure Humidity
    00:00 +26°C° 0.4 mm 1 mps 754 mmHg 90%
    01:00 +26°C° 0.2 mm 1 mps 754 mmHg 90%
    02:00 +26°C° 0.2 mm 1 mps 754 mmHg 90%
    03:00 +26°C° 0.2 mm 1 mps 753 mmHg 90%
    04:00 +26°C° 0.1 mm 1 mps 753 mmHg 90%
    05:00 +26°C° 0.1 mm 1 mps 754 mmHg 90%
    06:00 +26°C° 0.1 mm 1 mps 754 mmHg 90%
    07:00 +27°C° 0 mm 1 mps 754 mmHg 85%
    08:00 +28°C° 0 mm 1 mps 755 mmHg 79%
    09:00 +30°C° 0 mm 1 mps 755 mmHg 74%
    10:00 +31°C° 0 mm 2 mps 754 mmHg 71%
    11:00 +31°C° 0 mm 2 mps 754 mmHg 68%
    12:00 +32°C° 0 mm 2 mps 753 mmHg 64%
    13:00 +33°C° 0.1 mm 3 mps 753 mmHg 66%
    14:00 +33°C° 0.1 mm 3 mps 752 mmHg 67%
    15:00 +32°C° 0.1 mm 4 mps 752 mmHg 68%
    16:00 +30°C° 0 mm 4 mps 752 mmHg 72%
    17:00 +29°C° 0 mm 3 mps 753 mmHg 77%
    18:00 +28°C° 0 mm 3 mps 753 mmHg 82%
    19:00 +28°C° 0 mm 2 mps 754 mmHg 83%
    20:00 +27°C° 0 mm 2 mps 754 mmHg 85%
    21:00 +27°C° 0 mm 2 mps 755 mmHg 87%
    22:00 +27°C° 0 mm 2 mps 755 mmHg 88%
    23:00 +27°C° 0 mm 2 mps 755 mmHg 89%

    24 October, Thursday

    Time Temperature Precipitation Wind Pressure Humidity
    00:00 +26°C° 0 mm 2 mps 755 mmHg 90%
    01:00 +26°C° 0 mm 2 mps 754 mmHg 91%
    02:00 +26°C° 0 mm 2 mps 754 mmHg 91%
    03:00 +26°C° 0 mm 2 mps 754 mmHg 92%
    04:00 +26°C° 0 mm 2 mps 754 mmHg 92%
    05:00 +26°C° 0 mm 1 mps 755 mmHg 92%
    06:00 +26°C° 0 mm 1 mps 755 mmHg 92%
    07:00 +27°C° 0.3 mm 1 mps 755 mmHg 88%
    08:00 +28°C° 0.3 mm 1 mps 755 mmHg 84%
    09:00 +29°C° 0.3 mm 1 mps 756 mmHg 81%
    10:00 +29°C° 0.1 mm 1 mps 755 mmHg 78%
    11:00 +29°C° 0.1 mm 2 mps 755 mmHg 76%
    12:00 +30°C° 0.1 mm 2 mps 754 mmHg 74%
    13:00 +30°C° 0 mm 2 mps 754 mmHg 73%
    14:00 +30°C° 0 mm 2 mps 753 mmHg 72%
    15:00 +30°C° 0 mm 2 mps 753 mmHg 72%
    16:00 +29°C° 0 mm 2 mps 753 mmHg 75%
    17:00 +29°C° 0 mm 1 mps 753 mmHg 79%
    18:00 +28°C° 0 mm 1 mps 754 mmHg 83%
    19:00 +28°C° 0 mm 1 mps 754 mmHg 84%
    20:00 +27°C° 0 mm 1 mps 755 mmHg 85%
    21:00 +27°C° 0 mm 1 mps 755 mmHg 86%
    22:00 +25°C° 0 mm 0 mps 755 mmHg 87%
    23:00 +25°C° 0 mm 0 mps 755 mmHg 88%
    Show more